Simultaneous Nadir Overpasses (SNOs) Predictions

Prediction of SNOs between GOES-16 and NOAA-19 Satellite Orbit:

Table of predicted SNOs for the next 14.0 days since TLE Epoch: 5/15/2021
Index Date Time (GOES-16) GOES-16 Lat,Lon NOAA-19 Lat,Lon Distance(km) Time Diff (sec)
1 05/16/2021 11:57:06 0.02, -75.25 0.38, -76.90 187.58 80
2 05/17/2021 11:42:42 0.01, -75.26 -0.26, -74.03 140.90 80
3 05/18/2021 11:30:58 0.01, -75.28 -0.97, -71.17 469.51 80
4 05/20/2021 00:06:16 -0.01, -75.30 -0.85, -78.97 419.47 80
5 05/20/2021 23:54:31 -0.01, -75.31 -0.22, -76.10 90.57 80
6 05/21/2021 23:40:08 -0.01, -75.33 0.47, -73.24 238.57 80
7 05/24/2021 12:03:37 0.01, -75.39 0.67, -78.17 317.75 80
8 05/25/2021 11:49:13 0.01, -75.41 0.02, -75.30 12.16 80
9 05/26/2021 11:37:30 0.01, -75.43 -0.70, -72.44 341.17 80
10 05/29/2021 00:01:04 -0.01, -75.48 -0.47, -77.39 218.24 80
